Overview Statistics Trail Chart Weather Telemetry Raw packets
 

This is the latest recevied weather packets stored in our database for station/object SV1RVP-13. If no packets are shown the sender has not sent any weather packets the latest 10 day(s).

<< 34 35 36 37 38 39 40 >>
Time Temp. Humidity Pressure Rain* Wind** Luminosity Snow
1788169710 32.22° C 48% 1014.5 hPa 0 mm - - -
1788169132 31.67° C 49% 1014.6 hPa 0 mm - - -
1788168524 32.22° C 49% 1014.7 hPa 0 mm - - -
1788167925 32.22° C 50% 1014.7 hPa 0 mm - - -
1788167326 32.22° C 48% 1014.7 hPa 0 mm - - -
1788166710 32.22° C 48% 1015 hPa 0 mm - - -
1788166106 32.22° C 45% 1014.9 hPa 0 mm - - -
1788165531 31.67° C 48% 1015 hPa 0 mm - - -
1788164919 32.22° C 48% 1015.1 hPa 0 mm - - -
1788164323 31.11° C 48% 1015.1 hPa 0 mm - - -
1788163723 31.11° C 48% 1015.1 hPa 0 mm - - -
1788163110 31.11° C 48% 1015 hPa 0 mm - - -
1788162510 30.56° C 48% 1015 hPa 0 mm - - -
1788161926 30.56° C 48% 1015 hPa 0 mm - - -
1788161305 30° C 49% 1015 hPa 0 mm - - -
1788160723 30° C 49% 1015 hPa 0 mm - - -
1788160121 30° C 49% 1014.9 hPa 0 mm - - -
1788159529 29.44° C 49% 1015 hPa 0 mm - - -
1788158921 29.44° C 50% 1014.9 hPa 0 mm - - -
1788158322 28.89° C 50% 1014.9 hPa 0 mm - - -
1788157711 28.89° C 51% 1014.9 hPa 0 mm - - -
1788157116 28.89° C 52% 1015 hPa 0 mm - - -
1788156516 28.33° C 52% 1015.1 hPa 0 mm - - -
1788155929 28.33° C 53% 1015 hPa 0 mm - - -
1788155319 28.33° C 55% 1015.2 hPa 0 mm - - -

* Rain since midnight (hover to see other rain measurements)
** Current wind speed in m/s (hover to see current wind gust speed)